[[{"header":{"parameterUnit":"m.s-1","parameterCategory":1,"la1":30.2991,"la2":30.254,"lo1":-89.0895,"lo2":-89.0444,"dy":0.0017,"dx":0.0017,"nx":28,"ny":28,"refTime":"2026-01-03T09:00:00:Z","depth":0,"parameterNumber":2,"parameterNumberName":"U-component_of_WINDS"},"data":[0,0,0,0,0,0,0,0,0,0,0,0,0,0,0,0,0,0,0,0,0,0,0,0,0,0,0,0,0,0,0,0,0,0,0,0,0,0,0,0,0,0,0,0,0,0,0,0,0,0,0,0,0,0,0,0,0,0,-0.5515,-0.5515,0,-0.5552,-0.5552,-0.5553,-0.5561,-0.5561,-0.5561,-0.5561,-0.5599,-0.56,-0.5602,0,0,0,0,0,0,0,0,0,0,0,0,0,-0.5451,-0.5453,-0.5515,-0.5515,-0.5516,-0.5552,-0.5552,-0.5553,-0.5561,-0.5561,-0.5561,-0.5561,-0.5599,-0.56,-0.5602,0,0,0,0,0,0,0,0,0,0,0,0,0,-0.5483,-0.5453,-0.5515,-0.5524,-0.5526,-0.5552,-0.5552,-0.5553,-0.5562,-0.5561,-0.5561,-0.556,-0.5598,-0.56,-0.5602,-0.5621,0,0,-0.5608,-0.5608,0,0,0,0,0,0,0,0,-0.5481,-0.5485,-0.5522,-0.5524,-0.5525,-0.5552,-0.5544,-0.5576,-0.5562,-0.5548,-0.5561,-0.556,-0.5584,-0.5587,-0.5594,-0.5623,-0.5624,-0.5608,-0.5609,-0.561,-0.561,0,0,0,0,0,0,0,-0.5479,-0.5484,-0.5529,-0.5523,-0.5525,-0.5527,-0.5531,-0.555,-0.5567,-0.5549,-0.555,-0.5554,-0.5584,-0.5593,-0.5595,-0.5625,-0.5608,-0.5609,-0.5611,-0.5611,-0.567,-0.5671,0,0,0,0,0,0,-0.5475,-0.5482,-0.5528,-0.553,-0.5502,-0.5528,-0.5533,-0.5543,-0.5567,-0.557,-0.5554,-0.5554,-0.559,-0.5593,-0.5597,-0.5621,-0.561,-0.5612,-0.5613,-0.567,-0.567,-0.5671,0,0,0,0,0,0,-0.5473,-0.5479,-0.5527,-0.5506,-0.5513,-0.553,-0.5542,-0.5544,-0.5553,-0.5571,-0.5574,-0.556,-0.5589,-0.5594,-0.5615,-0.5622,-0.5612,-0.5614,-0.5669,-0.567,-0.567,-0.5668,0,0,0,0,0,0,-0.5472,-0.5478,-0.5486,-0.5506,-0.5514,-0.5544,-0.5542,-0.5545,-0.5556,-0.5556,-0.5577,-0.558,-0.559,-0.5612,-0.5617,-0.5624,-0.5616,-0.5669,-0.5669,-0.567,-0.5668,-0.5669,-0.567,0,0,0,0,0,-0.5469,-0.5484,-0.5486,-0.5492,-0.5523,-0.5545,-0.5549,-0.5559,-0.5556,-0.5564,-0.5576,-0.5579,-0.562,-0.5614,-0.5619,-0.5628,-0.5668,-0.5669,-0.567,-0.5667,-0.5669,-0.567,0,0,0,0,0,0,-0.5465,-0.5487,-0.549,-0.5512,-0.5526,-0.5546,-0.5556,-0.556,-0.5576,-0.5575,-0.5588,-0.5592,-0.5612,-0.5622,-0.5614,-0.5647,-0.5644,-0.5646,-0.564,-0.5641,-0.5642,-0.564,-0.5617,0,0,0,0,0,-0.5466,-0.5481,-0.55,-0.5518,-0.5525,-0.5539,-0.5549,-0.5555,-0.5571,-0.5577,-0.559,-0.5605,-0.5621,-0.5632,-0.5648,-0.5669,-0.5673,-0.5677,-0.5678,-0.5679,-0.5681,-0.5692,-0.5694,-0.5674,-0.5674,-0.5674,0,0,-0.5469,-0.5484,-0.5493,-0.5517,-0.5529,-0.5544,-0.5544,-0.5561,-0.5572,-0.558,-0.56,-0.561,-0.5627,-0.5648,-0.5658,-0.5657,-0.5687,-0.568,-0.568,-0.5682,-0.5693,-0.5695,-0.5697,-0.5675,-0.5674,-0.5674,0,0,-0.5484,-0.5496,-0.5511,-0.5523,-0.5541,-0.555,-0.5554,-0.5573,-0.558,-0.56,-0.5606,-0.562,-0.5647,-0.5659,-0.5669,-0.5686,-0.569,-0.5691,-0.5696,-0.5707,-0.5709,-0.571,-0.5716,-0.5718,-0.5693,-0.5693,-0.5693,0,-0.5486,-0.5509,-0.5519,-0.5535,-0.5545,-0.5552,-0.5568,-0.5579,-0.5601,-0.5608,-0.5606,-0.5641,-0.5653,-0.5677,-0.5681,-0.5688,-0.5693,-0.5689,-0.5708,-0.5709,-0.5711,-0.5717,-0.5719,-0.5693,-0.5693,-0.5693,-0.5693,0,-0.5511,-0.5527,-0.5537,-0.5558,-0.5569,-0.5585,-0.5597,-0.5608,-0.5613,-0.5622,-0.5642,-0.5657,-0.5676,-0.5682,-0.5687,-0.5706,-0.5705,-0.5705,-0.5703,-0.5712,-0.5718,-0.5721,-0.5693,-0.5693,-0.5693,-0.5693,0,0,-0.5524,-0.5549,-0.5553,-0.5562,-0.5582,-0.5594,-0.561,-0.5628,-0.5637,-0.5651,-0.5665,-0.5688,-0.5688,-0.5699,-0.5705,-0.5715,-0.5727,-0.5714,-0.5715,-0.5716,-0.5749,-0.5748,-0.5751,-0.573,-0.573,-0.5731,-0.5747,0,-0.5541,-0.5569,-0.5578,-0.5602,-0.5617,-0.5623,-0.5636,-0.565,-0.5658,-0.5672,-0.5682,-0.5698,-0.5697,-0.5703,-0.5713,-0.5724,-0.5734,-0.5723,-0.5743,-0.5743,-0.5738,-0.5754,-0.5754,-0.5769,-0.5749,-0.575,-0.575,0,-0.5564,-0.5579,-0.5604,-0.5621,-0.5628,-0.564,-0.5657,-0.567,-0.5685,-0.569,-0.5702,-0.5707,-0.5724,-0.5719,-0.5742,-0.5734,-0.5743,-0.5749,-0.575,-0.5753,-0.5748,-0.5757,-0.5774,-0.5777,-0.5754,-0.5754,-0.5753,0,-0.5572,-0.5598,-0.5616,-0.5624,-0.5644,-0.5652,-0.5661,-0.5676,-0.5686,-0.57,-0.5707,-0.5723,-0.5732,-0.5744,-0.5754,-0.575,-0.5775,-0.5772,-0.5781,-0.578,-0.5787,-0.5786,-0.5805,-0.5791,-0.5791,-0.5791,-0.5791,0,-0.559,-0.5605,-0.562,-0.5631,-0.5648,-0.5657,-0.5674,-0.5683,-0.5696,-0.5709,-0.5714,-0.5727,-0.5738,-0.5752,-0.5759,-0.5777,-0.5781,-0.5786,-0.5788,-0.5786,-0.5785,-0.5792,-0.5791,-0.5792,-0.5792,-0.5791,-0.5791,0,-0.5602,-0.5612,-0.5632,-0.5649,-0.5654,-0.5666,-0.568,-0.5691,-0.5699,-0.5716,-0.572,-0.5734,-0.575,-0.576,-0.5781,-0.5786,-0.5805,-0.5807,-0.58,-0.5801,-0.5809,-0.5808,-0.5834,-0.5837,-0.582,-0.5821,-0.5821,0,-0.5613,-0.5625,-0.5642,-0.5651,-0.566,-0.5675,-0.5685,-0.5694,-0.5704,-0.5721,-0.573,-0.5746,-0.576,-0.5785,-0.5797,-0.5813,-0.5815,-0.5823,-0.5817,-0.5815,-0.5815,-0.5814,-0.5816,-0.5824,-0.5824,-0.5824,-0.5824,0,-0.5631,-0.5636,-0.565,-0.5665,-0.5677,-0.569,-0.5702,-0.5709,-0.5721,-0.5732,-0.5748,-0.5759,-0.5779,-0.5795,-0.5812,-0.5821,-0.5824,-0.5825,-0.5828,-0.5826,-0.5822,-0.5825,-0.5803,-0.5825,-0.5825,-0.5825,-0.5825,-0.5825,-0.5644,-0.5654,-0.5668,-0.5683,-0.5694,-0.5705,-0.5716,-0.5726,-0.5739,-0.5757,-0.5761,-0.5778,-0.5792,-0.5814,-0.5823,-0.5837,-0.5836,-0.584,-0.5841,-0.5842,-0.5842,-0.5819,-0.584,-0.584,-0.584,-0.5839,-0.5839,0,-0.5663,-0.5672,-0.5686,-0.5703,-0.5715,-0.5716,-0.573,-0.574,-0.5755,-0.5767,-0.578,-0.5798,-0.5814,-0.5826,-0.5842,-0.585,-0.5852,-0.5854,-0.5853,-0.5855,-0.5842,-0.5838,-0.5852,-0.5852,-0.5852,-0.5852,-0.5852,-0.5852,-0.5674,-0.5692,-0.5698,-0.572,-0.5729,-0.5745,-0.5753,-0.5764,-0.5774,-0.5794,-0.5806,-0.5814,-0.5826,-0.5842,-0.5856,-0.5859,-0.5865,-0.5867,-0.587,-0.5858,-0.5856,-0.5855,-0.5851,-0.5868,-0.5868,-0.5882,-0.5883,-0.5883]},{"header":{"parameterUnit":"m.s-1","parameterCategory":1,"la1":30.2991,"la2":30.254,"lo1":-89.0895,"lo2":-89.0444,"dy":0.0017,"dx":0.0017,"nx":28,"ny":28,"refTime":"2026-01-03T09:00:00:Z","depth":0,"parameterNumber":3,"parameterNumberName":"V-component_of_WINDS"},"data":[0,0,0,0,0,0,0,0,0,0,0,0,0,0,0,0,0,0,0,0,0,0,0,0,0,0,0,0,0,0,0,0,0,0,0,0,0,0,0,0,0,0,0,0,0,0,0,0,0,0,0,0,0,0,0,0,0,0,-6.6601,-6.6603,0,-6.6741,-6.6742,-6.6744,-6.6684,-6.668,-6.6677,-6.6674,-6.6812,-6.6818,-6.6825,0,0,0,0,0,0,0,0,0,0,0,0,0,-6.6278,-6.6284,-6.6601,-6.6603,-6.6605,-6.6741,-6.6742,-6.6744,-6.6684,-6.668,-6.6676,-6.6672,-6.6809,-6.6818,-6.6826,0,0,0,0,0,0,0,0,0,0,0,0,0,-6.6418,-6.6286,-6.6601,-6.6591,-6.6592,-6.674,-6.6743,-6.6745,-6.6685,-6.668,-6.6675,-6.667,-6.6807,-6.6817,-6.6827,-6.6991,0,0,-6.6858,-6.6862,0,0,0,0,0,0,0,0,-6.641,-6.643,-6.6591,-6.6592,-6.6593,-6.669,-6.6679,-6.6827,-6.6687,-6.665,-6.6674,-6.6668,-6.6775,-6.6787,-6.6825,-6.6998,-6.7004,-6.6859,-6.6865,-6.687,-6.6872,0,0,0,0,0,0,0,-6.64,-6.6423,-6.6656,-6.6593,-6.6595,-6.6578,-6.6593,-6.6707,-6.6739,-6.6652,-6.6648,-6.6666,-6.6774,-6.6815,-6.6827,-6.7006,-6.6859,-6.6868,-6.6874,-6.6878,-6.7321,-6.7327,0,0,0,0,0,0,-6.6391,-6.6416,-6.6652,-6.666,-6.6487,-6.6588,-6.6604,-6.6664,-6.6737,-6.6744,-6.667,-6.6663,-6.68,-6.6815,-6.6832,-6.703,-6.6869,-6.6879,-6.6885,-6.7316,-6.7322,-6.7328,0,0,0,0,0,0,-6.6385,-6.6413,-6.6646,-6.6537,-6.6566,-6.6599,-6.6667,-6.6669,-6.671,-6.6751,-6.6756,-6.6706,-6.6797,-6.6818,-6.6953,-6.7034,-6.6884,-6.6893,-6.7309,-6.7318,-6.7325,-6.7428,0,0,0,0,0,0,-6.6376,-6.6411,-6.6475,-6.6539,-6.6572,-6.6766,-6.6672,-6.6676,-6.6728,-6.672,-6.6786,-6.6792,-6.6794,-6.6938,-6.6963,-6.7046,-6.6901,-6.7302,-6.7313,-6.7323,-6.7417,-6.7439,-6.7457,0,0,0,0,0,-6.6364,-6.6497,-6.6478,-6.6507,-6.6653,-6.6771,-6.679,-6.6791,-6.6735,-6.6799,-6.6825,-6.679,-6.7021,-6.6952,-6.698,-6.7067,-6.7297,-6.731,-6.7322,-6.7408,-6.7435,-6.7457,0,0,0,0,0,0,-6.6439,-6.6505,-6.6485,-6.6643,-6.6702,-6.6761,-6.6842,-6.6818,-6.6893,-6.6882,-6.6879,-6.6894,-6.7035,-6.7064,-6.6986,-6.723,-6.715,-6.7169,-6.7206,-6.7232,-6.7251,-6.7241,-6.6909,0,0,0,0,0,-6.6474,-6.6567,-6.6618,-6.6752,-6.6783,-6.6808,-6.6859,-6.6855,-6.6916,-6.694,-6.6976,-6.7035,-6.7121,-6.7177,-6.7259,-6.7421,-6.7434,-6.7494,-6.7514,-6.753,-6.7547,-6.7636,-6.7663,-6.737,-6.737,-6.737,0,0,-6.6547,-6.6595,-6.6653,-6.6769,-6.6814,-6.6909,-6.6829,-6.6932,-6.7002,-6.6955,-6.7086,-6.7115,-6.7179,-6.7329,-6.7397,-6.7358,-6.7631,-6.7546,-6.7559,-6.7567,-6.7651,-6.7679,-6.7704,-6.7379,-6.7377,-6.7376,0,0,-6.6729,-6.6774,-6.6892,-6.6939,-6.701,-6.7025,-6.7054,-6.7116,-6.7134,-6.7266,-6.7233,-6.7315,-6.7462,-6.7511,-6.7555,-6.7756,-6.7726,-6.7782,-6.7886,-6.7973,-6.7996,-6.8016,-6.8089,-6.8115,-6.7798,-6.7798,-6.7798,0,-6.6811,-6.6954,-6.6954,-6.7061,-6.7113,-6.7077,-6.7195,-6.724,-6.7333,-6.7369,-6.7324,-6.751,-6.7551,-6.7712,-6.7762,-6.7798,-6.783,-6.7775,-6.7993,-6.8013,-6.8032,-6.8101,-6.8129,-6.7805,-6.7804,-6.7803,-6.7803,0,-6.7051,-6.7151,-6.7237,-6.733,-6.7391,-6.7503,-6.7519,-6.7581,-6.7572,-6.7591,-6.7725,-6.7774,-6.7865,-6.7902,-6.7893,-6.8062,-6.8036,-6.7992,-6.7912,-6.8067,-6.8132,-6.8158,-6.7814,-6.7812,-6.781,-6.7808,0,0,-6.7284,-6.7377,-6.7409,-6.7452,-6.7527,-6.7603,-6.7713,-6.7804,-6.7857,-6.7922,-6.8014,-6.814,-6.8101,-6.815,-6.8146,-6.8222,-6.838,-6.8169,-6.817,-6.8207,-6.857,-6.8604,-6.8634,-6.836,-6.8365,-6.8369,-6.8565,0,-6.7473,-6.7668,-6.7672,-6.785,-6.7943,-6.791,-6.8005,-6.8061,-6.8082,-6.8162,-6.8184,-6.8275,-6.8215,-6.8245,-6.8319,-6.8345,-6.8453,-6.8331,-6.8445,-6.8449,-6.8431,-6.8668,-6.8704,-6.8887,-6.859,-6.8594,-6.8597,0,-6.7719,-6.7795,-6.7984,-6.8047,-6.8086,-6.8172,-6.8256,-6.8333,-6.8395,-6.8405,-6.8462,-6.8447,-6.8557,-6.8473,-6.8626,-6.8543,-6.8589,-6.8609,-6.8616,-6.8628,-6.8534,-6.8687,-6.8945,-6.8973,-6.8637,-6.8634,-6.8631,0,-6.7872,-6.8021,-6.8153,-6.819,-6.8267,-6.8329,-6.8363,-6.8421,-6.8475,-6.8548,-6.8583,-6.8667,-6.8713,-6.8778,-6.8785,-6.8723,-6.8939,-6.8855,-6.895,-6.895,-6.8998,-6.8995,-6.9268,-6.9026,-6.9025,-6.9025,-6.9024,0,-6.8083,-6.82,-6.8224,-6.8305,-6.8435,-6.8437,-6.8565,-6.8594,-6.8646,-6.8731,-6.8706,-6.8787,-6.8791,-6.8873,-6.8879,-6.9005,-6.9025,-6.9036,-6.9037,-6.9039,-6.9038,-6.9071,-6.9059,-6.9032,-6.9031,-6.9029,-6.9028,0,-6.8277,-6.8297,-6.8439,-6.8501,-6.8519,-6.8612,-6.8664,-6.8742,-6.876,-6.8869,-6.8895,-6.8924,-6.9019,-6.9033,-6.9144,-6.9148,-6.93,-6.9286,-6.928,-6.9278,-6.9373,-6.9365,-6.9677,-6.9719,-6.9449,-6.9451,-6.9453,0,-6.8411,-6.85,-6.8573,-6.8629,-6.8668,-6.8759,-6.8816,-6.8821,-6.888,-6.8959,-6.9026,-6.912,-6.9195,-6.9349,-6.9379,-6.9464,-6.9453,-6.9556,-6.9465,-6.9466,-6.9456,-6.9451,-6.946,-6.9574,-6.9577,-6.958,-6.9582,0,-6.8647,-6.8653,-6.8736,-6.8824,-6.8893,-6.8961,-6.9026,-6.9073,-6.9086,-6.9154,-6.9253,-6.9311,-6.9426,-6.9519,-6.9603,-6.9636,-6.9612,-6.961,-6.9637,-6.9641,-6.9635,-6.9641,-6.9329,-6.9603,-6.9601,-6.9599,-6.9598,-6.9597,-6.8816,-6.8894,-6.8958,-6.9052,-6.9102,-6.9163,-6.9239,-6.9268,-6.9352,-6.9447,-6.9444,-6.9553,-6.9612,-6.9723,-6.9763,-6.9847,-6.9813,-6.9851,-6.9861,-6.9871,-6.9881,-6.962,-6.9862,-6.9861,-6.986,-6.986,-6.986,0,-6.9052,-6.9092,-6.9178,-6.9271,-6.9344,-6.9316,-6.9386,-6.9449,-6.9546,-6.9605,-6.968,-6.9794,-6.9884,-6.9921,-7.001,-7.007,-7.0061,-7.0093,-7.0089,-7.0097,-6.9906,-6.9875,-7.0099,-7.0099,-7.0099,-7.0099,-7.0099,-7.0099,-6.9183,-6.9316,-6.9329,-6.9485,-6.9523,-6.9632,-6.9674,-6.973,-6.9778,-6.9906,-6.9982,-7.0007,-7.0057,-7.0149,-7.023,-7.0238,-7.0272,-7.031,-7.0314,-7.0135,-7.011,-7.0087,-7.0058,-7.0317,-7.0318,-7.0499,-7.05,-7.0501]}]]